Location: Amberg
(48.0613°N, 10.6820°E)
Time: 21:17:42
(UTC+00:00)

SL-08 R/B - Pass Details

Date: 18 November 2025
Orbit: 942 x 1007 km, 82.9° (Epoch: 10 December)

Event Time Altitude Azimuth Distance (km) Brightness Sun altitude
Rises 16:01:28 0° 181° (S) 3,607 7.8 -4.6°
Reaches altitude 10° 16:03:57 10° 179° (S) 2,661 7.1 -5.0°
Maximum altitude 16:10:00 75° 95° (E) 980 4.4 -6.0°
Drops below altitude 10° 16:16:04 10° 12° (NNE) 2,673 6.5 -6.9°
Sets 16:18:34 0° 11° (N) 3,625 7.2 -7.3°
